Battle Creek, MI

1:54 PM EST on December 06, 2019 (GMT -0500)
Kellogg

Weather History for KBTL - July, 2019

Change the Weather History Date:

Saturday, July 13, 2019

  Actual Average Record
Temperature  
Mean Temperature 76 °F 71 °F  
Max Temperature 89 °F 83 °F 94 °F (2012)
Min Temperature 62 °F 59 °F 52 °F (2007)
Degree Days  
Heating Degree Days 0 0  
Month to date heating degree days 0 6  
Since 1 June heating degree days 46 63  
Since 1 July heating degree days 0 6  
Cooling Degree Days 11 7  
Month to date cooling degree days 145 87  
Year to date cooling degree days 286 251  
Since 1 June cooling degree days 270 213  
Growing Degree Days 26 (Base 50)    
Moisture  
Dew Point 65 °F    
Average Humidity 73    
Maximum Humidity 90    
Minimum Humidity 55    
Precipitation  
Precipitation 0.00 in 0.11 in 0.90 in (2015)
Month to date precipitation 1.07 1.39  
Year to date precipitation 19.36 16.10  
Sea Level Pressure  
Sea Level Pressure 29.97 in    
Wind  
Wind Speed 9 mph (West)    
Max Wind Speed 21 mph    
Max Gust Speed 27 mph    
Visibility 10 miles    
Events      
T = Trace of Precipitation, MM = Missing Value Source: NWS Daily Summary

Daily Weather History Graph

Daily Weather History Graph

Search for Another Location

Airport or City:

Astronomy

Jul. 13, 2019 Rise Set
Actual Time 6:15 AM EDT 9:17 PM EDT
Civil Twilight 5:42 AM EDT 9:50 PM EDT
Nautical Twilight 4:59 AM EDT 10:33 PM EDT
Astronomical Twilight 4:08 AM EDT 11:24 PM EDT
Moon 6:38 PM EDT (7/13) 3:36 AM EDT (7/13)
Length of Visible Light 16h 08m
Length of Day
15h 01m
Waxing Gibbous, 90% of the Moon is Illuminated
Jul 13
Waxing Gibbous
Jul 16
Full
Jul 24
Last Quarter
Jul 31
New
Aug 7
First Quarter

Hourly Weather History & Observations

Time (EDT) Temp. Heat Index Dew Point Humidity Pressure Visibility Wind Dir Wind Speed Gust Speed Precip Events Conditions
12:53 AM 66.0 °F - 57.9 °F 75% 29.95 in 10.0 mi SSW 3.5 mph - N/A   Clear
1:53 AM 64.0 °F - 57.9 °F 80% 29.96 in 10.0 mi Calm Calm - N/A   Clear
2:53 AM 63.0 °F - 57.9 °F 84% 29.94 in 10.0 mi WSW 4.6 mph - N/A   Clear
3:53 AM 64.9 °F - 59.0 °F 81% 29.93 in 10.0 mi SW 6.9 mph - N/A   Clear
4:53 AM 63.0 °F - 59.0 °F 87% 29.94 in 10.0 mi SW 5.8 mph - N/A   Clear
5:53 AM 64.0 °F - 59.0 °F 84% 29.94 in 10.0 mi SSW 8.1 mph - N/A   Clear
6:53 AM 64.9 °F - 60.1 °F 84% 29.95 in 10.0 mi SSW 8.1 mph - N/A   Clear
7:53 AM 70.0 °F - 62.1 °F 76% 29.96 in 10.0 mi SSW 6.9 mph - N/A   Clear
8:53 AM 75.0 °F - 64.9 °F 71% 29.97 in 10.0 mi SW 9.2 mph - N/A   Clear
9:53 AM 80.1 °F 82.1 °F 66.0 °F 62% 29.97 in 10.0 mi WSW 11.5 mph - N/A   Clear
10:53 AM 80.1 °F 82.3 °F 66.9 °F 64% 29.98 in 10.0 mi WSW 11.5 mph - N/A   Overcast
11:53 AM 84.0 °F 87.0 °F 68.0 °F 58% 29.98 in 10.0 mi WSW 12.7 mph 23.0 mph N/A   Scattered Clouds
12:53 PM 86.0 °F 89.4 °F 68.0 °F 55% 29.97 in 10.0 mi West 16.1 mph 25.3 mph N/A   Clear
1:53 PM 88.0 °F 92.1 °F 69.1 °F 53% 29.98 in 10.0 mi West 15.0 mph 25.3 mph N/A   Mostly Cloudy
2:53 PM 88.0 °F 92.1 °F 69.1 °F 53% 29.98 in 10.0 mi West 15.0 mph 25.3 mph N/A   Mostly Cloudy
3:53 PM 88.0 °F 92.1 °F 69.1 °F 53% 29.99 in 10.0 mi NW 16.1 mph - N/A   Clear
4:53 PM 88.0 °F 92.1 °F 69.1 °F 53% 29.99 in 10.0 mi WNW 12.7 mph 24.2 mph N/A   Scattered Clouds
5:53 PM 87.1 °F 92.0 °F 70.0 °F 57% 29.97 in 10.0 mi West 12.7 mph - N/A   Partly Cloudy
6:53 PM 84.9 °F 89.4 °F 70.0 °F 61% 29.97 in 10.0 mi WNW 8.1 mph - N/A   Partly Cloudy
7:53 PM 84.0 °F 87.0 °F 68.0 °F 58% 29.98 in 10.0 mi NW 10.4 mph - N/A   Clear
8:53 PM 81.0 °F 83.3 °F 66.9 °F 62% 29.99 in 10.0 mi NW 6.9 mph - N/A   Clear
9:53 PM 75.9 °F - 68.0 °F 76% 30.01 in 10.0 mi West 5.8 mph - N/A   Clear
10:53 PM 73.9 °F - 68.0 °F 82% 30.03 in 10.0 mi North 6.9 mph - N/A   Clear
11:53 PM 73.0 °F - 63.0 °F 71% 30.05 in 10.0 mi North 5.8 mph - N/A   Clear